TimeEST,TemperatureF,Dew PointF,Humidity,Sea Level PressureIn,VisibilityMPH,Wind Direction,Wind SpeedMPH,Gust SpeedMPH,PrecipitationIn,Events,Conditions,WindDirDegrees,DateUTC
12:53 AM,21.0,15.1,78,29.95,7.0,Calm,Calm,-,N/A,,Overcast,0,2013-02-05 05:53:00
1:53 AM,21.0,15.1,78,29.93,7.0,Calm,Calm,-,N/A,,Overcast,0,2013-02-05 06:53:00
2:53 AM,21.0,16.0,81,29.94,6.0,Calm,Calm,-,N/A,,Haze,0,2013-02-05 07:53:00
3:53 AM,21.0,16.0,81,29.94,4.0,Calm,Calm,-,N/A,,Haze,0,2013-02-05 08:53:00
4:53 AM,21.0,16.0,81,29.92,5.0,Calm,Calm,-,N/A,,Haze,0,2013-02-05 09:53:00
5:42 AM,21.2,15.8,80,29.91,7.0,Calm,Calm,-,N/A,,Overcast,0,2013-02-05 10:42:00
5:53 AM,19.9,15.1,81,29.94,6.0,SSE,3.5,-,N/A,,Haze,160,2013-02-05 10:53:00
6:53 AM,19.9,14.0,78,29.93,6.0,Calm,Calm,-,N/A,,Haze,0,2013-02-05 11:53:00
7:53 AM,15.1,10.9,84,29.95,6.0,SW,4.6,-,N/A,,Overcast,230,2013-02-05 12:53:00
8:34 AM,15.8,12.2,86,29.92,5.0,Calm,Calm,-,N/A,,Scattered Clouds,0,2013-02-05 13:34:00
8:53 AM,15.1,12.0,88,29.96,2.5,Calm,Calm,-,N/A,,Clear,0,2013-02-05 13:53:00
9:04 AM,15.8,10.4,79,29.93,5.0,Calm,Calm,-,N/A,,Clear,0,2013-02-05 14:04:00
9:53 AM,19.9,15.1,81,29.95,5.0,South,4.6,-,N/A,,Haze,190,2013-02-05 14:53:00
10:53 AM,23.0,15.1,72,29.92,8.0,South,11.5,-,N/A,,Overcast,190,2013-02-05 15:53:00
11:53 AM,24.1,16.0,71,29.90,8.0,South,9.2,-,N/A,,Scattered Clouds,190,2013-02-05 16:53:00
12:53 PM,25.0,15.1,66,29.88,10.0,SW,13.8,-,N/A,,Overcast,220,2013-02-05 17:53:00
1:53 PM,26.1,17.1,69,29.86,10.0,SSW,13.8,-,N/A,,Overcast,210,2013-02-05 18:53:00
2:53 PM,27.0,17.1,66,29.84,8.0,SSW,15.0,-,N/A,,Overcast,210,2013-02-05 19:53:00
3:53 PM,28.0,18.0,66,29.83,8.0,SSW,9.2,-,N/A,,Overcast,210,2013-02-05 20:53:00
4:53 PM,28.0,19.0,69,29.84,8.0,SSW,10.4,-,N/A,,Overcast,210,2013-02-05 21:53:00
5:25 PM,28.4,19.4,69,29.82,1.5,SSW,12.7,-,0.00,Snow,Light Snow,200,2013-02-05 22:25:00
5:53 PM,27.0,19.9,75,29.85,1.5,SSW,11.5,-,0.00,Snow,Light Snow,200,2013-02-05 22:53:00
6:00 PM,26.6,21.2,80,29.82,0.5,SSW,10.4,-,0.00,Snow,Snow,200,2013-02-05 23:00:00
6:13 PM,26.6,21.2,80,29.83,1.0,SSW,10.4,-,0.00,Snow,Light Snow,200,2013-02-05 23:13:00
6:20 PM,26.6,21.2,80,29.83,2.0,SSW,11.5,-,0.00,Snow,Light Snow,210,2013-02-05 23:20:00
6:35 PM,26.6,21.2,80,29.84,4.0,SSW,9.2,-,0.00,,Haze,210,2013-02-05 23:35:00
6:53 PM,26.1,21.0,81,29.86,4.0,SSW,10.4,-,0.00,,Haze,210,2013-02-05 23:53:00
7:46 PM,26.6,21.2,80,29.86,5.0,SW,11.5,-,N/A,,Haze,230,2013-02-06 00:46:00
7:53 PM,27.0,21.9,81,29.88,5.0,SSW,10.4,-,N/A,,Haze,210,2013-02-06 00:53:00
8:03 PM,26.6,21.2,80,29.86,4.0,SSW,9.2,-,N/A,,Haze,210,2013-02-06 01:03:00
8:11 PM,28.4,21.2,74,29.86,4.0,SSW,12.7,-,N/A,,Haze,210,2013-02-06 01:11:00
8:53 PM,28.0,21.9,78,29.90,4.0,SW,9.2,-,N/A,,Haze,220,2013-02-06 01:53:00
9:39 PM,28.4,23.0,80,29.88,4.0,SW,6.9,-,N/A,,Haze,220,2013-02-06 02:39:00
9:53 PM,28.0,23.0,81,29.91,4.0,SW,6.9,-,N/A,,Haze,220,2013-02-06 02:53:00
10:31 PM,28.4,23.0,80,29.90,4.0,SW,8.1,-,N/A,,Haze,220,2013-02-06 03:31:00
10:53 PM,28.9,24.1,82,29.93,3.0,SW,9.2,-,N/A,,Haze,230,2013-02-06 03:53:00
11:43 PM,30.2,24.8,80,29.93,5.0,West,9.2,-,N/A,,Haze,280,2013-02-06 04:43:00
11:53 PM,30.9,23.0,72,29.95,7.0,NW,17.3,21.9,N/A,,Overcast,310,2013-02-06 04:53:00